UPS232 EDDK-EGNX

Flight info

Callsign UPS232
Flight time 1h 5m
Altitude 33000
Route NVO2K NVO Y868 SOGRI L608 DENUT L610 RAPIX DCT WELIN
Aircraft A306/H-SDE3FGHIRWY/LB1

Departure

Time 2026-04-26 21:10
Airport Cologne Bonn Airport (EDDK)

Arrival

Time 2026-04-26 22:16
Airport East Midlands Airport (EGNX)
Time Latitude Longitude Altitude Speed Heading
2026-04-26 20:46 50.87481 7.12890 236 ft 0 kts 224°
2026-04-26 20:59 50.87489 7.12902 223 ft 3 kts 228°
2026-04-26 21:00 50.87501 7.12927 236 ft 3 kts 232°
2026-04-26 21:00 50.87515 7.12951 236 ft 3 kts 230°
2026-04-26 21:00 50.87526 7.12976 236 ft 3 kts 243°
2026-04-26 21:00 50.87533 7.13005 237 ft 3 kts 264°
2026-04-26 21:01 50.87532 7.13035 237 ft 3 kts 297°
2026-04-26 21:01 50.87525 7.13051 237 ft 1 kts 318°
2026-04-26 21:01 50.87523 7.13055 237 ft 0 kts 318°
2026-04-26 21:05 50.87524 7.13053 237 ft 3 kts 318°
2026-04-26 21:05 50.87583 7.12970 240 ft 18 kts 318°
2026-04-26 21:05 50.87677 7.12836 241 ft 18 kts 318°
2026-04-26 21:05 50.87763 7.12698 240 ft 17 kts 297°
2026-04-26 21:06 50.87742 7.12541 240 ft 14 kts 220°
2026-04-26 21:06 50.87646 7.12486 237 ft 17 kts 198°
2026-04-26 21:06 50.87536 7.12430 239 ft 17 kts 198°
2026-04-26 21:06 50.87405 7.12365 238 ft 20 kts 197°
2026-04-26 21:07 50.87278 7.12303 239 ft 18 kts 197°
2026-04-26 21:07 50.87174 7.12243 240 ft 14 kts 206°
2026-04-26 21:07 50.87076 7.12110 241 ft 20 kts 221°
2026-04-26 21:07 50.86948 7.12047 238 ft 20 kts 175°
2026-04-26 21:08 50.86817 7.12097 238 ft 19 kts 165°
2026-04-26 21:08 50.86688 7.12150 238 ft 22 kts 166°
2026-04-26 21:08 50.86515 7.12221 238 ft 26 kts 165°
2026-04-26 21:08 50.86343 7.12292 237 ft 25 kts 165°
2026-04-26 21:09 50.86191 7.12343 244 ft 20 kts 169°
2026-04-26 21:09 50.86074 7.12384 249 ft 15 kts 155°
2026-04-26 21:09 50.86050 7.12502 251 ft 11 kts 75°
2026-04-26 21:09 50.86077 7.12599 251 ft 9 kts 63°
2026-04-26 21:10 50.86158 7.12859 248 ft 60 kts 64°
2026-04-26 21:10 50.86443 7.13796 257 ft 127 kts 64°
2026-04-26 21:10 50.86901 7.15328 462 ft 172 kts 65°
2026-04-26 21:10 50.87425 7.17111 1345 ft 182 kts 64°
2026-04-26 21:11 50.87976 7.18874 2600 ft 174 kts 64°
2026-04-26 21:11 50.88514 7.20570 3658 ft 177 kts 65°
2026-04-26 21:11 50.89060 7.22413 4435 ft 193 kts 65°
2026-04-26 21:11 50.89620 7.24387 5410 ft 197 kts 64°
2026-04-26 21:12 50.90203 7.26449 6042 ft 219 kts 63°
2026-04-26 21:12 50.90863 7.28776 6476 ft 245 kts 63°
2026-04-26 21:12 50.91666 7.31332 6878 ft 268 kts 53°
2026-04-26 21:12 50.93026 7.33425 7463 ft 276 kts 26°
2026-04-26 21:13 50.94864 7.34201 8292 ft 275 kts 358°
2026-04-26 21:13 50.96702 7.33562 9337 ft 272 kts 334°
2026-04-26 21:13 50.98256 7.31873 10260 ft 274 kts 316°
2026-04-26 21:13 50.99391 7.29478 11011 ft 279 kts 299°
2026-04-26 21:14 51.00015 7.26445 11335 ft 303 kts 278°
2026-04-26 21:14 50.99847 7.22972 11744 ft 323 kts 257°
2026-04-26 21:14 50.98806 7.19766 12178 ft 342 kts 236°
2026-04-26 21:14 50.97255 7.16809 12707 ft 349 kts 234°
2026-04-26 21:15 50.96004 7.13508 13307 ft 353 kts 246°
2026-04-26 21:15 50.94955 7.09896 13593 ft 368 kts 249°
2026-04-26 21:15 50.93921 7.06107 13911 ft 380 kts 249°
2026-04-26 21:15 50.92869 7.02230 14400 ft 385 kts 249°
2026-04-26 21:16 50.91803 6.98317 14937 ft 389 kts 249°
2026-04-26 21:16 50.90723 6.94362 15507 ft 392 kts 249°
2026-04-26 21:16 50.89636 6.90388 16066 ft 395 kts 249°
2026-04-26 21:16 50.88537 6.86380 16655 ft 398 kts 249°
2026-04-26 21:17 50.87431 6.82355 17233 ft 400 kts 249°
2026-04-26 21:17 50.86316 6.78303 17801 ft 403 kts 249°
2026-04-26 21:17 50.85190 6.74222 18353 ft 406 kts 249°
2026-04-26 21:17 50.84056 6.70113 18844 ft 409 kts 249°
2026-04-26 21:18 50.83025 6.65915 19297 ft 410 kts 255°
2026-04-26 21:18 50.82432 6.61514 19766 ft 409 kts 265°
2026-04-26 21:18 50.82266 6.57026 20213 ft 410 kts 270°
2026-04-26 21:18 50.82263 6.52505 20625 ft 412 kts 272°
2026-04-26 21:19 50.82339 6.47956 21062 ft 414 kts 273°
2026-04-26 21:19 50.82438 6.43401 21495 ft 416 kts 273°
2026-04-26 21:19 50.82535 6.38813 21925 ft 418 kts 273°
2026-04-26 21:19 50.82618 6.34204 22352 ft 420 kts 273°
2026-04-26 21:20 50.82687 6.29571 22761 ft 423 kts 272°
2026-04-26 21:20 50.82743 6.24910 23162 ft 425 kts 272°
2026-04-26 21:20 50.82792 6.20293 23537 ft 427 kts 272°
2026-04-26 21:20 50.82836 6.15586 23910 ft 429 kts 272°
2026-04-26 21:21 50.82878 6.10862 24228 ft 431 kts 272°
2026-04-26 21:21 50.82918 6.06111 24532 ft 433 kts 272°
2026-04-26 21:21 50.82947 6.01346 24825 ft 435 kts 271°
2026-04-26 21:21 50.82906 5.96549 25136 ft 436 kts 270°
2026-04-26 21:22 50.82817 5.91749 25438 ft 438 kts 269°
2026-04-26 21:22 50.82703 5.86930 25732 ft 439 kts 269°
2026-04-26 21:22 50.82581 5.82100 26032 ft 440 kts 269°
2026-04-26 21:23 50.82339 5.72398 26572 ft 443 kts 269°
2026-04-26 21:23 50.82221 5.67520 26835 ft 444 kts 269°
2026-04-26 21:23 50.82106 5.62626 27095 ft 446 kts 269°
2026-04-26 21:23 50.81993 5.57712 27276 ft 448 kts 269°
2026-04-26 21:24 50.81878 5.52773 27509 ft 450 kts 269°
2026-04-26 21:24 50.81762 5.47825 27759 ft 451 kts 269°
2026-04-26 21:24 50.81643 5.42869 28061 ft 451 kts 269°
2026-04-26 21:24 50.81522 5.37926 28401 ft 449 kts 269°
2026-04-26 21:25 50.81399 5.32996 28747 ft 448 kts 269°
2026-04-26 21:25 50.81276 5.28147 29087 ft 447 kts 269°
2026-04-26 21:25 50.81147 5.23181 29451 ft 446 kts 269°
2026-04-26 21:25 50.81018 5.18294 29801 ft 444 kts 269°
2026-04-26 21:26 50.80889 5.13486 30152 ft 443 kts 269°
2026-04-26 21:26 50.80814 5.08646 30526 ft 440 kts 272°
2026-04-26 21:26 50.81071 5.03846 30824 ft 438 kts 279°
2026-04-26 21:26 50.81716 4.99148 31092 ft 436 kts 285°
2026-04-26 21:27 50.82513 4.94523 31362 ft 436 kts 286°
2026-04-26 21:27 50.83367 4.89927 31652 ft 435 kts 287°
2026-04-26 21:27 50.84245 4.85362 31945 ft 434 kts 287°
2026-04-26 21:27 50.85130 4.80798 32240 ft 433 kts 287°
2026-04-26 21:28 50.86009 4.76246 32519 ft 432 kts 287°
2026-04-26 21:28 50.86880 4.71697 32802 ft 431 kts 287°
2026-04-26 21:28 50.87743 4.67155 33021 ft 430 kts 287°
2026-04-26 21:28 50.88583 4.62694 33017 ft 415 kts 287°
2026-04-26 21:29 50.90387 4.54169 33018 ft 406 kts 294°
2026-04-26 21:29 50.93092 4.46335 33021 ft 405 kts 300°
2026-04-26 21:30 50.96010 4.38682 33019 ft 405 kts 301°
2026-04-26 21:30 50.98464 4.32340 33019 ft 405 kts 301°
2026-04-26 21:31 51.01899 4.23403 33017 ft 405 kts 300°
2026-04-26 21:31 51.04800 4.15791 33014 ft 405 kts 300°
2026-04-26 21:32 51.07710 4.08118 33013 ft 406 kts 300°
2026-04-26 21:32 51.10620 4.00422 33010 ft 406 kts 300°
2026-04-26 21:33 51.13524 3.92722 33008 ft 406 kts 300°
2026-04-26 21:33 51.16423 3.85011 33006 ft 406 kts 300°
2026-04-26 21:34 51.19317 3.77291 33006 ft 406 kts 300°
2026-04-26 21:34 51.22196 3.69531 33005 ft 406 kts 297°
2026-04-26 21:35 51.23942 3.62604 33008 ft 406 kts 285°
2026-04-26 21:35 51.25268 3.53844 33007 ft 406 kts 283°
2026-04-26 21:36 51.26424 3.45015 33007 ft 406 kts 282°
2026-04-26 21:36 51.26988 3.40597 33110 ft 407 kts 282°
2026-04-26 21:36 51.27555 3.36141 33253 ft 413 kts 282°
2026-04-26 21:37 51.28693 3.27200 33285 ft 407 kts 282°
2026-04-26 21:37 51.29818 3.18378 33288 ft 405 kts 282°
2026-04-26 21:38 51.30941 3.09541 33295 ft 405 kts 282°
2026-04-26 21:38 51.32048 3.00781 33289 ft 405 kts 282°
2026-04-26 21:39 51.33156 2.91955 33288 ft 405 kts 282°
2026-04-26 21:39 51.34257 2.83122 33291 ft 405 kts 281°
2026-04-26 21:40 51.35348 2.74317 33289 ft 403 kts 281°
2026-04-26 21:40 51.36435 2.65514 33291 ft 403 kts 281°
2026-04-26 21:41 51.37517 2.56708 33295 ft 403 kts 281°
2026-04-26 21:41 51.38592 2.47898 33297 ft 403 kts 281°
2026-04-26 21:42 51.39661 2.39078 33293 ft 403 kts 281°
2026-04-26 21:42 51.40721 2.30272 33296 ft 402 kts 281°
2026-04-26 21:43 51.41783 2.21477 33301 ft 402 kts 281°
2026-04-26 21:43 51.42856 2.12683 33300 ft 402 kts 281°
2026-04-26 21:44 51.43927 2.03886 33307 ft 402 kts 281°
2026-04-26 21:44 51.45159 1.95155 33306 ft 402 kts 284°
2026-04-26 21:45 51.46556 1.86479 33308 ft 402 kts 284°
2026-04-26 21:45 51.47943 1.77804 33309 ft 401 kts 283°
2026-04-26 21:46 51.49320 1.69123 33311 ft 401 kts 283°
2026-04-26 21:46 51.50690 1.60435 33311 ft 402 kts 283°
2026-04-26 21:47 51.52053 1.51741 33317 ft 401 kts 283°
2026-04-26 21:47 51.53410 1.43046 33317 ft 401 kts 283°
2026-04-26 21:48 51.54759 1.34352 33316 ft 401 kts 283°
2026-04-26 21:48 51.56100 1.25658 33316 ft 401 kts 283°
2026-04-26 21:49 51.57435 1.16957 33317 ft 400 kts 282°
2026-04-26 21:49 51.58754 1.08316 33314 ft 400 kts 282°
2026-04-26 21:50 51.60073 0.99631 33316 ft 400 kts 282°
2026-04-26 21:50 51.61387 0.90931 33317 ft 400 kts 282°
2026-04-26 21:51 51.62694 0.82224 33319 ft 400 kts 282°
2026-04-26 21:51 51.64003 0.73457 33324 ft 409 kts 282°
2026-04-26 21:52 51.65344 0.64420 33014 ft 415 kts 282°
2026-04-26 21:52 51.66016 0.59880 32628 ft 420 kts 282°
2026-04-26 21:52 51.66691 0.55299 32364 ft 422 kts 282°
2026-04-26 21:53 51.67366 0.50708 32097 ft 421 kts 282°
2026-04-26 21:53 51.68038 0.46129 31842 ft 420 kts 281°
2026-04-26 21:53 51.68709 0.41540 31590 ft 419 kts 281°
2026-04-26 21:53 51.69376 0.36961 31338 ft 418 kts 281°
2026-04-26 21:54 51.70039 0.32402 31077 ft 417 kts 281°
2026-04-26 21:54 51.70688 0.27919 30766 ft 412 kts 281°
2026-04-26 21:54 51.71334 0.23459 30189 ft 404 kts 281°
2026-04-26 21:54 51.71964 0.19084 29561 ft 397 kts 281°
2026-04-26 21:55 51.72725 0.14816 28966 ft 399 kts 287°
2026-04-26 21:55 51.73878 0.10676 28415 ft 407 kts 296°
2026-04-26 21:55 51.75475 0.06886 28036 ft 411 kts 305°
2026-04-26 21:55 51.77312 0.03359 27771 ft 409 kts 308°
2026-04-26 21:56 51.79183 -0.00098 27516 ft 408 kts 308°
2026-04-26 21:56 51.81049 -0.03528 27249 ft 407 kts 308°
2026-04-26 21:56 51.82914 -0.06959 26997 ft 406 kts 308°
2026-04-26 21:56 51.84770 -0.10380 26741 ft 404 kts 308°
2026-04-26 21:57 51.86624 -0.13801 26490 ft 403 kts 308°
2026-04-26 21:57 51.88465 -0.17205 26242 ft 401 kts 308°
2026-04-26 21:57 51.90276 -0.20557 25995 ft 400 kts 308°
2026-04-26 21:57 51.92100 -0.23939 25753 ft 398 kts 308°
2026-04-26 21:58 51.93920 -0.27317 25497 ft 397 kts 308°
2026-04-26 21:58 51.95729 -0.30680 25237 ft 393 kts 308°
2026-04-26 21:58 51.97509 -0.33989 24826 ft 385 kts 308°
2026-04-26 21:58 51.99257 -0.37247 24331 ft 380 kts 308°
2026-04-26 21:59 52.00983 -0.40467 23817 ft 377 kts 308°
2026-04-26 21:59 52.02695 -0.43667 23193 ft 373 kts 308°
2026-04-26 21:59 52.04385 -0.46831 22701 ft 368 kts 308°
2026-04-26 21:59 52.06053 -0.49954 22187 ft 364 kts 308°
2026-04-26 22:00 52.07699 -0.53041 21660 ft 359 kts 308°
2026-04-26 22:00 52.09329 -0.56103 21173 ft 355 kts 308°
2026-04-26 22:00 52.10935 -0.59124 20647 ft 352 kts 308°
2026-04-26 22:00 52.12527 -0.62122 20137 ft 348 kts 308°
2026-04-26 22:01 52.14105 -0.65095 19622 ft 346 kts 308°
2026-04-26 22:01 52.15676 -0.68060 19126 ft 343 kts 308°
2026-04-26 22:01 52.17230 -0.70997 18588 ft 342 kts 308°
2026-04-26 22:01 52.18777 -0.73923 18019 ft 340 kts 308°
2026-04-26 22:02 52.20311 -0.76828 17517 ft 336 kts 308°
2026-04-26 22:02 52.21315 -0.78731 17188 ft 333 kts 308°
2026-04-26 22:02 52.23324 -0.82542 16573 ft 329 kts 308°
2026-04-26 22:02 52.24901 -0.85162 16089 ft 328 kts 317°
2026-04-26 22:03 52.26774 -0.87284 15652 ft 327 kts 324°
2026-04-26 22:03 52.28718 -0.89221 15195 ft 326 kts 326°
2026-04-26 22:03 52.30653 -0.91120 14712 ft 324 kts 326°
2026-04-26 22:03 52.32581 -0.93017 14262 ft 323 kts 326°
2026-04-26 22:04 52.34494 -0.94907 13894 ft 316 kts 326°
2026-04-26 22:04 52.36331 -0.96724 13789 ft 300 kts 326°
2026-04-26 22:04 52.38084 -0.98462 13704 ft 288 kts 326°
2026-04-26 22:04 52.39789 -0.99996 13569 ft 281 kts 334°
2026-04-26 22:05 52.41705 -1.00730 13112 ft 289 kts 356°
2026-04-26 22:05 52.43698 -1.00283 12714 ft 288 kts 11°
2026-04-26 22:05 52.45603 -0.99461 12239 ft 281 kts 13°
2026-04-26 22:05 52.47469 -0.98607 11697 ft 276 kts 13°
2026-04-26 22:06 52.49323 -0.97766 11283 ft 276 kts 13°
2026-04-26 22:06 52.51168 -0.96940 10779 ft 273 kts 13°
2026-04-26 22:06 52.52994 -0.96127 10304 ft 270 kts 13°
2026-04-26 22:06 52.54801 -0.95327 9773 ft 267 kts 14°
2026-04-26 22:07 52.56590 -0.94536 9259 ft 265 kts 13°
2026-04-26 22:07 52.58395 -0.94019 8735 ft 262 kts
2026-04-26 22:07 52.60206 -0.93875 8242 ft 259 kts
2026-04-26 22:07 52.61395 -0.93817 7932 ft 255 kts
2026-04-26 22:08 52.63714 -0.93699 7345 ft 246 kts
2026-04-26 22:08 52.65415 -0.93620 6895 ft 243 kts
2026-04-26 22:08 52.67098 -0.93555 6447 ft 241 kts
2026-04-26 22:08 52.68749 -0.93501 5996 ft 239 kts
2026-04-26 22:09 52.70401 -0.93453 5532 ft 236 kts
2026-04-26 22:09 52.72029 -0.93412 5082 ft 233 kts
2026-04-26 22:09 52.73642 -0.93380 4610 ft 230 kts
2026-04-26 22:09 52.75236 -0.93348 4150 ft 227 kts 358°
2026-04-26 22:10 52.76737 -0.93936 3689 ft 220 kts 334°
2026-04-26 22:10 52.78089 -0.95085 3242 ft 217 kts 329°
2026-04-26 22:10 52.79412 -0.96273 2784 ft 216 kts 329°
2026-04-26 22:10 52.80729 -0.97459 2392 ft 216 kts 329°
2026-04-26 22:11 52.82055 -0.98661 2290 ft 218 kts 329°
2026-04-26 22:11 52.83100 -1.00353 2273 ft 207 kts 294°
2026-04-26 22:11 52.83554 -1.02582 2289 ft 203 kts 279°
2026-04-26 22:11 52.83622 -1.04891 2291 ft 201 kts 266°
2026-04-26 22:12 52.83557 -1.07196 2291 ft 201 kts 266°
2026-04-26 22:12 52.83513 -1.09440 2277 ft 187 kts 267°
2026-04-26 22:12 52.83479 -1.11542 2295 ft 179 kts 267°
2026-04-26 22:12 52.83447 -1.13549 2306 ft 171 kts 267°
2026-04-26 22:13 52.83414 -1.15495 2184 ft 165 kts 266°
2026-04-26 22:13 52.83382 -1.17253 1938 ft 146 kts 266°
2026-04-26 22:13 52.83352 -1.18881 1755 ft 140 kts 266°
2026-04-26 22:13 52.83326 -1.20509 1580 ft 142 kts 266°
2026-04-26 22:14 52.83305 -1.22142 1390 ft 142 kts 266°
2026-04-26 22:14 52.83277 -1.23785 1173 ft 141 kts 265°
2026-04-26 22:14 52.83246 -1.25430 968 ft 144 kts 266°
2026-04-26 22:14 52.83222 -1.27055 811 ft 143 kts 265°
2026-04-26 22:15 52.83200 -1.28700 612 ft 143 kts 264°
2026-04-26 22:15 52.83152 -1.30306 387 ft 137 kts 264°
2026-04-26 22:15 52.83114 -1.31828 314 ft 120 kts 268°
2026-04-26 22:15 52.83099 -1.32848 307 ft 62 kts 269°
2026-04-26 22:16 52.83089 -1.33497 315 ft 41 kts 268°
2026-04-26 22:16 52.83077 -1.33695 314 ft 13 kts 237°
2026-04-26 22:16 52.82986 -1.33727 314 ft 13 kts 179°
2026-04-26 22:16 52.82919 -1.33763 314 ft 9 kts 236°
2026-04-26 22:17 52.82912 -1.33834 311 ft 8 kts 266°
2026-04-26 22:17 52.82908 -1.33951 310 ft 12 kts 267°
2026-04-26 22:17 52.82907 -1.34109 310 ft 15 kts 270°
2026-04-26 22:17 52.82907 -1.34281 311 ft 14 kts 270°
2026-04-26 22:18 52.82901 -1.34386 314 ft 7 kts 237°
2026-04-26 22:18 52.82840 -1.34439 309 ft 15 kts 201°
2026-04-26 22:18 52.82786 -1.34467 309 ft 5 kts 197°
2026-04-26 22:18 52.82766 -1.34493 308 ft 3 kts 240°
2026-04-26 22:19 52.82761 -1.34556 307 ft 6 kts 267°
2026-04-26 22:19 52.82760 -1.34599 309 ft 0 kts 267°